Location: Hickory_Viewmont
(35.7830°N, 81.3170°W)
Time: 21:29:38
(UTC-04:00)

Daily predictions for brighter satellites

Satellite Brightness Start Highest point End
(mag) Time Altitude Azimuth Time Altitude Azimuth Time Altitude Azimuth
ATLAS CENTAUR R/B 3.2 19:25:18 10° SW 19:29:23 89° NW 19:41:54 10° NE
USA 215 3.9 19:26:51 10° ENE 19:32:42 35° SE 19:38:31 10° S
Cosmos 724 4.3 19:29:58 10° SSW 19:35:49 75° ESE 19:41:52 10° NNE
SAR-Lupe-4 4.1 19:33:08 10° SE 19:36:26 37° ENE 19:39:46 10° N
OAO 3 Rocket 3.2 19:37:21 10° W 19:42:05 81° S 19:46:49 10° E
Cosmos 1758 3.6 19:38:40 10° SSE 19:42:33 45° E 19:46:29 10° NNE
Cosmos 1464 Rocket 4.0 19:37:05 10° S 19:43:17 74° E 19:49:28 10° N
Cosmos 2034 Rocket 4.1 19:37:28 10° SSE 19:43:31 54° E 19:49:39 10° NNE
SL-16 R/B 3.5 19:41:38 10° SW 19:47:01 43° WNW 19:52:27 10° N
Cosmos 1378 3.4 19:46:49 10° N 19:50:32 73° W 19:54:14 10° S
Cosmos 1408 Rocket 3.5 19:46:56 10° N 19:51:14 60° E 19:55:28 10° SSE
SKYMED 2 4.4 19:47:39 10° N 19:51:54 55° WNW 19:56:08 10° SSW
Cosmos 1766 4.5 19:51:11 10° SSW 19:55:00 48° W 19:58:53 10° N
Meteor 1-21 Rocket 4.4 19:51:31 10° N 19:56:51 47° ENE 20:02:10 10° SSE
Helios 1A 3.8 19:55:41 10° SE 19:59:21 30° ENE 20:03:04 10° N
Atlas Centaur 2 4.5 19:59:39 10° W 20:06:47 31° SSW 20:13:49 10° SSE
Meteor 1-28 Rocket 3.4 20:05:39 10° N 20:09:22 73° WNW 20:13:03 10° SSW
Meteor 1-29 3.3 20:07:42 10° NNE 20:11:02 40° E 20:14:20 10° S
GPS 2-04 Rocket1 2.3 20:09:52 10° WSW 20:13:18 77° S 20:15:05 27° E
SEDSat Delta rocket 4.4 20:08:31 10° W 20:14:52 55° S 20:19:42 19° ESE
NOAA 12 4.1 20:09:50 10° SSE 20:15:05 88° WSW 20:20:24 10° NNW
H-2A R/B 4.1 20:17:05 21° ENE 20:17:05 21° ENE 20:19:45 10° NNE
ASTEX 1 3.8 20:14:45 10° NNE 20:19:19 38° E 20:23:51 10° SSE
Resurs 1-3 3.8 20:15:45 10° SSE 20:19:56 47° ENE 20:24:10 10° N
Cosmos 1805 4.0 20:16:46 10° SSW 20:20:37 54° W 20:24:30 10° N
Cosmos 1943 Rocket 3.9 20:17:56 10° NNE 20:20:54 14° NE 20:21:11 14° ENE
Cosmos 1743 Rocket 3.5 20:17:40 10° N 20:22:03 62° E 20:26:23 10° SSE
Cosmos 1452 Rocket 3.9 20:16:55 10° NNW 20:22:08 65° WSW 20:27:17 10° S
ALOS 2.8 20:20:14 20° SE 20:22:53 37° ENE 20:27:10 10° N
Cosmos 2251 Rocket 4.2 20:20:25 10° SSE 20:24:51 29° E 20:29:17 10° NE
Cosmos 1943 3.1 20:21:53 10° S 20:27:25 62° ESE 20:32:58 10° NNE
Resurs 01 Rocket 1.5 20:23:35 10° SSE 20:28:02 79° ENE 20:32:29 10° N
Cosmos 2369 Rocket 2.7 20:23:42 10° N 20:28:57 38° ENE 20:31:02 28° ESE
CENTAUR R/B 2.3 20:23:54 10° SSW 20:29:48 78° ESE 20:36:26 10° NE
Helios 1B rocket 2.5 20:27:04 10° N 20:31:11 82° WNW 20:35:18 10° SSW
Gbstr 26 Del rocket 3.3 20:27:58 10° SW 20:32:14 72° NW 20:36:27 15° NE
Cosmos 1953 4.0 20:30:38 10° SSW 20:34:18 35° W 20:37:59 10° NNW
ISS -1.3 20:32:59 10° W 20:35:47 26° NNW 20:37:50 15° NNE
Cosmos 1733 3.0 20:35:06 10° S 20:38:56 70° E 20:42:47 10° NNE
Cosmos 1420 Rocket 4.1 20:36:00 10° NNW 20:41:19 81° WSW 20:46:38 10° SSE
Cosmos 1470 2.9 20:42:14 10° SSW 20:46:06 74° W 20:49:59 10° N
BREEZE-M TANK 4.3 20:40:45 10° WNW 20:46:34 28° SW 20:48:39 16° S
Cosmos 2279 Rocket 4.4 20:48:02 36° E 20:48:02 36° E 20:53:27 10° NNE
Nadezhda 4 Rocket 4.1 20:43:27 10° N 20:49:42 75° W 20:55:50 10° S
Cosmos 1674 2.7 20:45:55 10° N 20:49:48 81° W 20:51:28 33° S
Spot 2 Rocket 4.0 20:47:00 10° S 20:51:57 58° WSW 20:56:56 10° NNW
GP-B 3.5 20:49:28 10° NNE 20:52:56 46° NE 20:52:56 46° NE
ASTRO E2 4.5 20:53:36 10° WSW 20:56:44 22° SSW 20:57:04 21° SSW
Cosmos 1092 Rocket 3.9 20:53:31 10° N 20:59:44 86° W 21:05:52 10° S
Cosmos 2151 3.8 20:58:48 10° N 21:01:36 39° NNE 21:01:36 39° NNE
Cosmos 2142 Rocket 4.4 20:59:17 10° S 21:05:40 88° E 21:12:06 10° N
Cosmos 158 Rocket 4.5 21:04:17 10° SSW 21:09:03 55° WNW 21:13:50 10° N
Meteor 1-16 Rocket 3.9 21:04:35 10° S 21:09:53 81° E 21:15:12 10° N
Cosmos 1655 Rocket 4.0 21:04:00 10° N 21:10:07 56° E 21:10:10 56° E
Cosmos 2026 Rocket 3.9 21:04:40 10° N 21:10:44 63° E 21:11:20 60° ESE
Cosmos 1634 Rocket 4.1 21:06:27 10° S 21:12:41 77° W 21:18:54 10° N
USA 215 3.7 21:09:26 10° NE 21:15:49 58° NW 21:22:12 10° WSW
OAO 3 Rocket 4.1 21:20:55 10° W 21:24:38 40° SW 21:24:38 40° SW
Meteor 1-11 4.2 21:19:51 10° N 21:25:15 76° NNE 21:25:15 76° NNE
Cosmos 1943 Rocket 3.5 21:59:40 10° NNW 22:02:43 33° NNW 22:02:43 33° NNW
Cosmos 2369 Rocket 4.0 22:08:07 10° NW 22:12:44 26° WSW 22:12:52 26° WSW
